#timestamp,LO_Frequency,Hit,StdDev 
1585560195.2,286046947.2,P
1585560215.0,286046945.3,P
1585560215.9,286046945.3,P
1585560235.7,286046945.8,Y
1585560255.6,286047000.4,P
1585560275.4,286046996.6,N
1585560295.3,286046999.5,N
1585560315.1,286046995.2,N
1585560316.0,286046995.2,N
1585560335.8,286046995.1,N
1585560355.7,286046995.8,N
1585560375.5,286046993.6,N
1585560395.4,286046994.5,N
1585560415.2,286046992.1,N
1585560435.0,286046992.8,N
1585560435.9,286046992.8,N
1585560455.8,286046990.8,N
1585560475.6,286046991.0,N
1585560495.4,286046989.1,N
1585560515.3,286046989.8,N
1585560535.1,286046987.5,N
1585560555.9,286046988.0,N
1585560575.7,286046986.6,N
1585560595.5,286046986.5,N
1585560615.4,286046986.1,N
1585560635.2,286046986.3,N
1585560655.0,286046985.2,N
1585560655.9,286046985.2,N
1585560675.8,286046983.3,N
1585560695.6,286046981.2,N
1585560715.5,286046981.6,N
1585560735.3,286046981.9,N
1585560755.1,286046980.1,N
1585560775.9,286046978.1,N
1585560795.7,286046976.4,Y
1585560815.5,286046985.4,P
1585560835.4,286046986.3,P
1585560855.2,286046983.9,P
1585560875.1,286046984.7,Y
1585560876.0,286046984.7,P
1585560895.8,286046998.0,N
1585560915.6,286046997.5,N
1585560935.5,286046996.3,N
1585560955.3,286046994.6,N
1585560975.1,286046992.3,N
1585560995.9,286046990.2,N
1585561015.7,286046990.8,N
1585561035.6,286046989.5,N
1585561055.4,286046986.9,Y
1585561075.2,286046993.7,P
1585561095.1,286046994.4,P
1585561096.0,286046994.4,P
1585561115.8,286046992.4,Y
1585561135.7,286046996.6,P
1585561155.5,286046997.8,N
1585561175.3,286046997.9,N
1585561195.2,286046995.2,N
1585561215.0,286046993.4,Y
1585561215.9,286046993.4,P
1585561235.7,286046999.6,N
1585561255.6,286046998.0,N
1585561275.4,286046995.1,N
1585561295.3,286046995.9,N
1585561315.1,286046993.8,Y
1585561316.0,286046993.8,P
1585561335.8,286046997.8,N
1585561355.7,286046998.0,N
1585561375.5,286046996.2,N
1585561395.4,286046994.0,Y
1585561415.2,286046997.4,P
1585561435.0,286046995.4,P
1585561435.9,286046995.4,P
1585561455.8,286046993.8,Y
1585561475.6,286046996.7,P
1585561495.4,286046997.5,P
1585561515.3,286046995.5,P
1585561535.1,286046993.5,Y
1585561555.9,286046997.7,P
1585561575.7,286046994.9,P
1585561595.5,286046996.0,P
1585561615.4,286046996.0,Y
1585561635.2,286046999.2,P
1585561655.1,286046996.8,N
1585561656.0,286046996.8,N
1585561675.8,286046995.1,Y
1585561695.6,286046999.5,P
1585561715.5,286046996.7,N
1585561735.3,286046997.6,N
1585561755.1,286046997.9,N
1585561775.9,286046995.6,Y
1585561795.7,286046996.7,P
1585561815.6,286046995.4,P
1585561835.4,286046995.1,P
1585561855.2,286046996.2,Y
1585561875.1,286046999.4,P
1585561876.0,286046999.4,N
1585561895.8,286046999.6,N
1585561915.7,286046997.4,N
1585561935.5,286046997.5,N
1585561955.3,286046995.1,Y
1585561975.2,286046997.1,P
1585561995.0,286046997.8,P
1585561995.9,286046997.8,P
1585562015.8,286046994.9,Y
1585562035.6,286046999.3,P
1585562055.4,286046997.7,N
1585562075.3,286046994.9,P
1585562095.1,286046997.4,N
1585562115.9,286046995.0,Y
1585562135.7,286046997.0,P
1585562155.5,286046999.6,N
1585562175.4,286046997.0,N
1585562195.2,286046995.0,Y
1585562215.0,286046999.3,P
1585562215.9,286046999.3,N
1585562235.8,286046996.7,P
1585562255.6,286046995.1,Y
1585562275.5,286046999.5,P
1585562295.3,286046996.7,P
1585562315.1,286046997.9,N
1585562335.9,286046997.6,N
1585562355.7,286046996.1,Y
1585562375.6,286046997.6,P
1585562395.4,286046998.0,P
